Вернуться в каталог

NIMBUS 2 DEB

АктивенLEO
NORAD 28978·DEBRIS·🇺🇸 United States

Запущен May 15, 1966 с Vandenberg Space Force Base

Loading…

Ближайшие Пролёты (ближайшие 24 часа)

TLE

СвежийSource: Space-Track

Эпоха: Sep 14, 2026, 07:22 UTC

1 28978U 66040AP  26257.30759353  .00001371  00000-0  21242-2 0  9992
2 28978 100.3793 196.6189 0039602 163.8412 349.6716 13.52783532941979

Отслеживайте NIMBUS 2 DEB в реальном времени с AllMySat

Download on the App Store